User: anonymous   Login
Location: Unspecified
(0.0000°N, 0.0000°E)
Time: 14:34:05
(UTC+00:00)
Language:

Oscar 10/S400 - Orbit

View from above orbital plane
View from above orbital plane
View from above satellite
View from above satellite

Ground track
Ground track

The orbit data is extracted from the following two-line orbital elements,

1 14129U 83058B   17082.84029831 -.00000543 +00000-0 +00000-0 0  9997
2 14129 026.9279 047.9672 6022536 282.7199 327.3558 02.05873092226066
Epoch (UTC): 23 March 2017 20:10:01
Eccentricity: 0.6022536
inclination: 26.9279°
perigee height: 4003 km
apogee height: 35443 km
right ascension of ascending node: 47.9672°
argument of perigee: 282.7199°
revolutions per day: 2.05873092
mean anomaly at epoch: 327.3558°
orbit number at epoch: 22606

The dashed part of the orbit path shows where the satellite is in the earth's shadow,  

DLR